N13151 KBED-KBED

Flight info

Callsign N13151
Flight time 0h 26m
Altitude VFR
Route
Aircraft C172/L-VGD/C

Departure

Time 2026-04-26 02:23
Airport Laurence G Hanscom Field (KBED)

Arrival

Time 2026-04-26 02:49
Airport Laurence G Hanscom Field (KBED)
Time Latitude Longitude Altitude Speed Heading
2026-04-26 02:16 42.25991 -71.88369 2298 ft 86 kts 236°
2026-04-26 02:16 42.25807 -71.89176 2428 ft 98 kts 267°
2026-04-26 02:16 42.25752 -71.90011 2729 ft 89 kts 261°
2026-04-26 02:17 42.25528 -71.90786 2932 ft 88 kts 261°
2026-04-26 02:17 42.25498 -71.91676 3010 ft 104 kts 265°
2026-04-26 02:17 42.25489 -71.92704 3091 ft 112 kts 281°
2026-04-26 02:17 42.25850 -71.93636 3112 ft 122 kts 319°
2026-04-26 02:18 42.26679 -71.93889 3027 ft 128 kts 12°
2026-04-26 02:18 42.27378 -71.93255 3018 ft 120 kts 58°
2026-04-26 02:18 42.27696 -71.92234 2990 ft 118 kts 71°
2026-04-26 02:18 42.27996 -71.91216 2986 ft 115 kts 70°
2026-04-26 02:19 42.28298 -71.90216 2985 ft 115 kts 69°
2026-04-26 02:19 42.28602 -71.89222 2983 ft 114 kts 69°
2026-04-26 02:19 42.28903 -71.88242 2982 ft 114 kts 69°
2026-04-26 02:19 42.29209 -71.87250 2983 ft 114 kts 69°
2026-04-26 02:20 42.29514 -71.86257 2980 ft 114 kts 69°
2026-04-26 02:20 42.29817 -71.85274 2979 ft 114 kts 69°
2026-04-26 02:20 42.30122 -71.84285 2979 ft 113 kts 69°
2026-04-26 02:20 42.30425 -71.83300 2981 ft 113 kts 69°
2026-04-26 02:21 42.30728 -71.82315 2979 ft 113 kts 69°
2026-04-26 02:21 42.31031 -71.81332 2979 ft 113 kts 69°
2026-04-26 02:21 42.31333 -71.80349 2979 ft 113 kts 69°
2026-04-26 02:21 42.31635 -71.79366 2980 ft 113 kts 69°
2026-04-26 02:22 42.31935 -71.78389 2978 ft 113 kts 68°
2026-04-26 02:22 42.32372 -71.77530 2973 ft 113 kts 47°
2026-04-26 02:22 42.32906 -71.76747 2975 ft 114 kts 49°
2026-04-26 02:22 42.33436 -71.75936 2980 ft 115 kts 50°
2026-04-26 02:23 42.33965 -71.75115 2980 ft 116 kts 50°
2026-04-26 02:23 42.34495 -71.74287 2983 ft 116 kts 50°
2026-04-26 02:23 42.35025 -71.73456 2984 ft 116 kts 50°
2026-04-26 02:23 42.35554 -71.72625 2986 ft 116 kts 50°
2026-04-26 02:24 42.36083 -71.71796 2986 ft 116 kts 50°
2026-04-26 02:24 42.36611 -71.70966 2985 ft 116 kts 50°
2026-04-26 02:24 42.37139 -71.70136 2988 ft 116 kts 50°
2026-04-26 02:24 42.37668 -71.69305 2989 ft 116 kts 50°
2026-04-26 02:25 42.38189 -71.68485 2990 ft 116 kts 50°
2026-04-26 02:25 42.38717 -71.67655 3003 ft 116 kts 50°
2026-04-26 02:25 42.39243 -71.66827 3002 ft 116 kts 50°
2026-04-26 02:25 42.39768 -71.66000 3001 ft 116 kts 50°
2026-04-26 02:26 42.40294 -71.65173 3000 ft 116 kts 50°
2026-04-26 02:26 42.40818 -71.64348 3001 ft 115 kts 50°
2026-04-26 02:26 42.41344 -71.63520 3002 ft 115 kts 50°
2026-04-26 02:26 42.41866 -71.62698 3000 ft 115 kts 50°
2026-04-26 02:27 42.42381 -71.61885 3002 ft 115 kts 50°
2026-04-26 02:27 42.42904 -71.61061 3004 ft 115 kts 50°
2026-04-26 02:27 42.43425 -71.60240 3000 ft 115 kts 50°
2026-04-26 02:27 42.43945 -71.59419 3001 ft 115 kts 49°
2026-04-26 02:28 42.44465 -71.58599 3003 ft 115 kts 49°
2026-04-26 02:28 42.44985 -71.57778 3000 ft 115 kts 49°
2026-04-26 02:28 42.45504 -71.56959 3003 ft 114 kts 49°
2026-04-26 02:28 42.46021 -71.56142 3003 ft 114 kts 49°
2026-04-26 02:29 42.46540 -71.55324 3001 ft 114 kts 49°
2026-04-26 02:29 42.47056 -71.54508 3004 ft 114 kts 49°
2026-04-26 02:29 42.47568 -71.53700 3001 ft 114 kts 49°
2026-04-26 02:29 42.48086 -71.52880 3003 ft 115 kts 49°
2026-04-26 02:30 42.48604 -71.52060 3005 ft 115 kts 49°
2026-04-26 02:30 42.49124 -71.51239 3004 ft 114 kts 49°
2026-04-26 02:30 42.49640 -71.50422 3002 ft 114 kts 49°
2026-04-26 02:30 42.50157 -71.49604 3004 ft 114 kts 49°
2026-04-26 02:31 42.50673 -71.48787 3004 ft 114 kts 49°
2026-04-26 02:31 42.51190 -71.47968 3005 ft 114 kts 49°
2026-04-26 02:31 42.51708 -71.47148 3006 ft 114 kts 49°
2026-04-26 02:31 42.52225 -71.46330 3004 ft 114 kts 49°
2026-04-26 02:32 42.52565 -71.45790 3003 ft 114 kts 49°
2026-04-26 02:32 42.53082 -71.44972 3003 ft 114 kts 49°
2026-04-26 02:32 42.53597 -71.44154 3004 ft 114 kts 49°
2026-04-26 02:32 42.54115 -71.43333 3004 ft 114 kts 49°
2026-04-26 02:33 42.54631 -71.42515 3007 ft 114 kts 49°
2026-04-26 02:33 42.55146 -71.41697 3004 ft 114 kts 49°
2026-04-26 02:33 42.55662 -71.40878 3005 ft 114 kts 49°
2026-04-26 02:33 42.56170 -71.40072 3005 ft 114 kts 50°
2026-04-26 02:34 42.56685 -71.39254 3002 ft 114 kts 49°
2026-04-26 02:34 42.57200 -71.38436 3005 ft 114 kts 50°
2026-04-26 02:34 42.57714 -71.37619 3006 ft 114 kts 49°
2026-04-26 02:34 42.58229 -71.36800 3004 ft 114 kts 50°
2026-04-26 02:35 42.58742 -71.35984 3005 ft 114 kts 50°
2026-04-26 02:35 42.59257 -71.35165 3007 ft 114 kts 49°
2026-04-26 02:35 42.59770 -71.34349 3006 ft 114 kts 50°
2026-04-26 02:35 42.60275 -71.33546 3005 ft 113 kts 50°
2026-04-26 02:36 42.60786 -71.32732 3005 ft 113 kts 50°
2026-04-26 02:36 42.61299 -71.31916 3003 ft 113 kts 50°
2026-04-26 02:36 42.61812 -71.31099 3003 ft 113 kts 50°
2026-04-26 02:36 42.62324 -71.30283 3005 ft 113 kts 50°
2026-04-26 02:37 42.62838 -71.29465 3018 ft 113 kts 50°
2026-04-26 02:37 42.63349 -71.28650 3019 ft 113 kts 50°
2026-04-26 02:37 42.63861 -71.27834 3020 ft 113 kts 50°
2026-04-26 02:37 42.64373 -71.27018 3021 ft 113 kts 50°
2026-04-26 02:38 42.64877 -71.26214 3023 ft 113 kts 50°
2026-04-26 02:38 42.65387 -71.25399 3021 ft 113 kts 50°
2026-04-26 02:38 42.65898 -71.24584 3023 ft 113 kts 50°
2026-04-26 02:38 42.66408 -71.23770 3023 ft 113 kts 50°
2026-04-26 02:39 42.66841 -71.22888 3025 ft 113 kts 71°
2026-04-26 02:39 42.66855 -71.21840 3025 ft 111 kts 104°
2026-04-26 02:39 42.66463 -71.20925 2929 ft 116 kts 127°
2026-04-26 02:39 42.65957 -71.20041 2783 ft 120 kts 126°
2026-04-26 02:40 42.65454 -71.19151 2632 ft 118 kts 126°
2026-04-26 02:40 42.64961 -71.18275 2474 ft 116 kts 126°
2026-04-26 02:40 42.64473 -71.17405 2316 ft 115 kts 127°
2026-04-26 02:40 42.63981 -71.16528 2104 ft 118 kts 128°
2026-04-26 02:41 42.63488 -71.15646 2012 ft 113 kts 128°
2026-04-26 02:41 42.63021 -71.14796 1993 ft 112 kts 127°
2026-04-26 02:41 42.62529 -71.14012 1989 ft 113 kts 147°
2026-04-26 02:41 42.61772 -71.13730 1854 ft 118 kts 184°
2026-04-26 02:42 42.61072 -71.14211 1875 ft 115 kts 227°
2026-04-26 02:42 42.60540 -71.15035 1828 ft 114 kts 221°
2026-04-26 02:42 42.59940 -71.15697 1832 ft 110 kts 218°
2026-04-26 02:42 42.59363 -71.16340 1875 ft 105 kts 218°
2026-04-26 02:43 42.58169 -71.17554 1838 ft 111 kts 217°
2026-04-26 02:43 42.57549 -71.18175 1830 ft 108 kts 214°
2026-04-26 02:43 42.56948 -71.18796 1799 ft 109 kts 218°
2026-04-26 02:44 42.56391 -71.19421 1873 ft 99 kts 218°
2026-04-26 02:44 42.55862 -71.19969 1890 ft 96 kts 217°
2026-04-26 02:44 42.55315 -71.20511 1862 ft 98 kts 214°
2026-04-26 02:44 42.54744 -71.21065 1794 ft 101 kts 216°
2026-04-26 02:45 42.54202 -71.21626 1786 ft 97 kts 218°
2026-04-26 02:45 42.53670 -71.22203 1638 ft 99 kts 218°
2026-04-26 02:45 42.53123 -71.22768 1507 ft 98 kts 214°
2026-04-26 02:45 42.52570 -71.23312 1369 ft 98 kts 217°
2026-04-26 02:46 42.52031 -71.23876 1251 ft 97 kts 215°
2026-04-26 02:46 42.51483 -71.24420 1112 ft 98 kts 218°
2026-04-26 02:46 42.50956 -71.24994 987 ft 97 kts 216°
2026-04-26 02:46 42.50411 -71.25528 857 ft 96 kts 217°
2026-04-26 02:47 42.49868 -71.26079 748 ft 101 kts 217°
2026-04-26 02:47 42.49310 -71.26675 742 ft 100 kts 218°
2026-04-26 02:47 42.48709 -71.27043 786 ft 98 kts 175°
2026-04-26 02:47 42.48228 -71.26459 780 ft 102 kts 114°
2026-04-26 02:48 42.47879 -71.25671 773 ft 100 kts 154°
2026-04-26 02:48 42.47243 -71.25610 755 ft 86 kts 186°
2026-04-26 02:48 42.46851 -71.26071 599 ft 81 kts 260°
2026-04-26 02:48 42.46891 -71.26849 323 ft 82 kts 276°
2026-04-26 02:49 42.46958 -71.27573 161 ft 69 kts 275°
2026-04-26 02:49 42.47006 -71.28105 133 ft 44 kts 270°
2026-04-26 02:49 42.47000 -71.28388 129 ft 19 kts 227°
2026-04-26 02:49 42.46921 -71.28474 133 ft 6 kts 217°
2026-04-26 02:50 42.46920 -71.28475 133 ft 0 kts 217°